TimeCST,TemperatureF,Dew PointF,Humidity,Sea Level PressureIn,VisibilityMPH,Wind Direction,Wind SpeedMPH,Gust SpeedMPH,PrecipitationIn,Events,Conditions,WindDirDegrees,DateUTC
12:53 AM,27.0,21.0,78,30.40,10.0,West,5.8,-,N/A,,Clear,280,2013-02-16 06:53:00
1:53 AM,25.0,19.0,78,30.39,10.0,WNW,4.6,-,N/A,,Clear,300,2013-02-16 07:53:00
2:53 AM,23.0,18.0,81,30.36,10.0,WSW,5.8,-,N/A,,Clear,240,2013-02-16 08:53:00
3:53 AM,21.9,16.0,78,30.35,10.0,WSW,6.9,-,N/A,,Clear,240,2013-02-16 09:53:00
4:53 AM,21.0,15.1,78,30.34,10.0,West,4.6,-,N/A,,Clear,260,2013-02-16 10:53:00
5:53 AM,21.9,16.0,78,30.31,10.0,WSW,8.1,-,N/A,,Clear,240,2013-02-16 11:53:00
6:53 AM,21.9,16.0,78,30.29,10.0,SW,10.4,-,N/A,,Clear,230,2013-02-16 12:53:00
7:53 AM,27.0,18.0,69,30.26,10.0,SSW,13.8,-,N/A,,Clear,210,2013-02-16 13:53:00
8:53 AM,33.1,21.0,61,30.24,10.0,WSW,18.4,-,N/A,,Clear,250,2013-02-16 14:53:00
9:53 AM,39.9,21.9,49,30.22,10.0,West,19.6,-,N/A,,Clear,260,2013-02-16 15:53:00
10:53 AM,48.9,21.9,35,30.20,10.0,WSW,10.4,-,N/A,,Clear,250,2013-02-16 16:53:00
11:53 AM,55.0,21.0,27,30.17,10.0,West,10.4,-,N/A,,Clear,260,2013-02-16 17:53:00
12:53 PM,57.9,18.0,21,30.12,10.0,West,6.9,16.1,N/A,,Clear,270,2013-02-16 18:53:00
1:53 PM,61.0,19.0,20,30.09,10.0,WSW,11.5,-,N/A,,Clear,240,2013-02-16 19:53:00
2:53 PM,61.0,18.0,19,30.05,10.0,South,8.1,-,N/A,,Clear,190,2013-02-16 20:53:00
3:53 PM,64.0,15.1,15,30.03,10.0,NNE,8.1,-,N/A,,Clear,20,2013-02-16 21:53:00
4:53 PM,64.0,12.9,14,30.01,10.0,Calm,Calm,-,N/A,,Clear,0,2013-02-16 22:53:00
5:53 PM,61.0,17.1,18,30.01,10.0,Calm,Calm,-,N/A,,Clear,0,2013-02-16 23:53:00
6:53 PM,55.9,17.1,22,30.03,10.0,Calm,Calm,-,N/A,,Clear,0,2013-02-17 00:53:00
7:53 PM,46.9,23.0,39,30.05,10.0,SSW,4.6,-,N/A,,Clear,200,2013-02-17 01:53:00
8:53 PM,41.0,23.0,49,30.05,10.0,WSW,4.6,-,N/A,,Clear,240,2013-02-17 02:53:00
9:53 PM,35.1,24.1,64,30.03,10.0,WSW,4.6,-,N/A,,Clear,250,2013-02-17 03:53:00
10:53 PM,33.1,24.1,70,30.02,10.0,South,6.9,-,N/A,,Clear,190,2013-02-17 04:53:00
11:53 PM,32.0,23.0,69,29.99,10.0,SW,4.6,-,N/A,,Clear,230,2013-02-17 05:53:00